Time,B instrument,Bx,By,Bz,sigma B,Ion instrument,Status,Tp_par,Tp_perp,carrot,r_sun,clat,clong,earth_he_angle,n_p,vp_x,vp_y,vp_z,vth_p_par,vth_p_perp
1980-03-10 00:00:54,1,0.0857143,0.542857,0.857143,0.251526,1,1,19187.0,16897.1,1692,0.96640855,-1.5940313,35.80127,279.05908,10.6293,324.842,-9.1801,5.62043,17.7976,16.7018
1980-03-10 00:02:15,1,0.0666667,0.733333,0.916667,0.262996,1,1,14793.4,15525.5,1692,0.96640515,-1.5941544,35.789063,279.05859,12.3485,324.952,-3.96594,7.74072,15.6276,16.0096
1980-03-10 00:03:36,1,0.583333,0.816667,0.9,0.340751,1,1,21932.0,16708.1,1692,0.96640342,-1.5942163,35.7771,279.05835,10.7027,324.137,-8.24968,4.0986,19.0282,16.6082
1980-03-10 00:04:57,1,0.1,0.814286,0.885714,0.296923,1,1,15437.7,15002.7,1692,0.96640176,-1.5942774,35.765137,279.05811,11.9171,324.813,-3.76635,7.07452,15.9643,15.7378
1980-03-10 00:06:18,1,-0.0333333,0.766667,0.933333,0.251661,1,1,15521.2,18551.4,1692,0.96639836,-1.5944014,35.753174,279.05786,11.1181,324.457,-9.59196,6.19469,16.0074,17.5003
1980-03-10 00:07:39,1,0.416667,0.833333,0.7,0.153659,1,1,16350.1,15693.4,1692,0.96639669,-1.5944633,35.737305,279.05762,11.5403,324.095,-4.49224,7.68611,16.4293,16.096
1980-03-10 00:09:00,1,0.366667,0.65,1.0,0.343592,1,1,19522.6,16499.3,1692,0.96639329,-1.5945864,35.725342,279.05737,10.4611,324.147,-8.30428,3.79297,17.9526,16.504
1980-03-10 00:10:21,1,0.685714,0.142857,1.11429,0.319438,1,1,20060.2,15236.9,1692,0.96639162,-1.5946484,35.713379,279.05713,12.4882,323.893,-3.11239,5.45933,18.1981,15.8601
1980-03-10 00:11:42,1,0.783333,0.366667,0.916667,0.467262,1,1,19210.3,17191.6,1692,0.96638995,-1.5947104,35.701416,279.05688,10.4581,322.825,-8.53156,5.55701,17.8084,16.8467
1980-03-10 00:13:03,1,0.44,0.46,0.72,0.149666,1,1,19062.1,16789.6,1692,0.96638656,-1.5948334,35.689209,279.0564,11.7288,324.895,-3.5377,5.57784,17.7396,16.6486
1980-03-10 00:14:24,1,-1.17143,-0.314286,2.5,0.407581,1,1,15371.8,15691.0,1692,0.96638483,-1.5948954,35.67749,279.0564,10.4217,319.03,-11.4379,10.493,15.9302,16.0947
1980-03-10 00:15:45,1,-1.28333,-0.666667,2.56667,0.390512,1,1,19911.9,16793.6,1692,0.96638316,-1.5949574,35.661621,279.05615,11.1513,320.006,-5.88711,8.74917,18.1307,16.6506
1980-03-10 00:17:06,1,-0.633333,-0.433333,2.36667,0.2,1,1,19256.5,15432.4,1692,0.96637976,-1.5950804,35.649414,279.05566,11.7107,319.321,-12.6502,10.5741,17.8298,15.9615
1980-03-10 00:18:27,1,-0.55,-0.683333,2.3,0.271825,1,1,18677.2,18523.0,1692,0.96637809,-1.5951424,35.637451,279.05542,10.7893,320.239,-6.98077,11.0318,17.5596,17.487
1980-03-10 00:19:48,1,-0.616667,-0.85,2.43333,0.32059,1,1,17898.9,15659.5,1692,0.96637642,-1.5952034,35.625732,279.05542,11.2975,317.586,-12.3816,10.399,17.1898,16.0785
1980-03-10 00:21:09,1,-0.583333,-0.916667,2.36667,0.371932,1,1,20788.7,18607.3,1692,0.96637303,-1.5953274,35.613525,279.05493,10.4249,319.982,-8.1584,9.482,18.5256,17.5267
1980-03-10 00:22:30,1,-0.666667,-1.35,2.36667,0.440013,1,1,19568.5,17297.5,1692,0.9663713,-1.5953894,35.601563,279.05469,11.2493,319.685,-13.6403,10.5091,17.9737,16.8985
1980-03-10 00:23:51,1,-0.74,-1.12,1.94,0.492341,1,1,23065.7,19020.2,1692,0.96636963,-1.5954504,35.585938,279.05469,10.7282,319.164,-8.80676,8.96125,19.5138,17.7201
1980-03-10 00:25:12,1,-1.11429,-1.58571,1.98571,0.257935,1,1,17843.6,16635.1,1692,0.96636623,-1.5955744,35.57373,279.0542,11.3796,317.423,-13.1389,10.8089,17.1632,16.5718
1980-03-10 00:26:33,1,-1.66667,-0.766667,1.88333,0.364005,1,1,22667.5,20398.3,1692,0.96636456,-1.5956364,35.561768,279.05396,10.4542,319.029,-5.96381,7.45814,19.3446,18.3508
1980-03-10 00:27:54,1,-1.61667,-0.15,1.63333,0.355121,1,1,18725.0,19612.1,1692,0.96636289,-1.5956974,35.549805,279.05371,9.81704,318.286,-7.37465,8.77095,17.582,17.9937
1980-03-10 00:29:15,1,-2.01667,0.2,1.31667,0.315348,1,1,22423.8,21831.2,1692,0.9663595,-1.5958214,35.537842,279.05347,9.61829,318.192,-2.43716,6.16228,19.2403,18.9844
1980-03-10 00:30:36,1,-1.93333,0.933333,1.63333,0.450925,1,1,19515.0,20002.4,1692,0.96635783,-1.5958834,35.525879,279.05322,9.47578,317.615,3.17735,9.03346,17.9491,18.1718
1980-03-10 00:31:57,1,-2.01667,0.8,1.7,0.318416,1,1,14626.5,22554.7,1692,0.9663561,-1.5959444,35.51001,279.05298,9.61726,315.495,-0.714987,7.48242,15.5392,19.2964
1980-03-10 00:33:18,1,-1.98333,0.733333,1.63333,0.32532,1,1,17324.0,19338.5,1692,0.9663527,-1.5960684,35.498047,279.05273,8.96936,315.192,3.13526,9.59265,16.9115,17.8677
1980-03-10 00:34:39,1,-1.6,0.833333,1.63333,0.425572,1,1,16573.5,19346.4,1692,0.96635103,-1.5961294,35.486084,279.05249,9.88493,313.535,-1.51325,9.41007,16.5411,17.8714
1980-03-10 00:36:00,1,-1.6,0.833333,1.7,0.390157,1,1,18911.5,18623.3,1692,0.96634763,-1.5962534,35.473877,279.052,8.77843,313.981,3.51261,10.9786,17.6693,17.5342
1980-03-10 00:37:21,1,-1.54,1.44,2.02,0.224499,1,1,15338.8,17777.5,1692,0.96634597,-1.5963154,35.462158,279.052,10.0829,312.285,-1.65192,11.2254,15.913,17.1314
1980-03-10 00:38:42,1,-1.6,1.24,2.18,0.4,1,1,17902.6,16916.3,1692,0.9663443,-1.5963764,35.450195,279.05176,8.5294,312.323,-6.52796,12.2657,17.1916,16.7113
1980-03-10 00:40:03,1,-1.78,1.24,2.1,0.394968,1,1,17597.2,18849.1,1692,0.9663409,-1.5965004,35.434082,279.05127,9.8603,311.289,-1.12267,11.7604,17.0443,17.6402
1980-03-10 00:41:24,1,-1.65,1.38333,2.03333,0.359784,1,1,18157.3,17597.7,1692,0.96633923,-1.5965624,35.422119,279.05103,8.48259,313.106,4.22684,12.327,17.3134,17.0446
1980-03-10 00:42:45,1,-1.86667,0.916667,2.16667,0.45,1,1,17269.5,17567.9,1692,0.9663375,-1.5966234,35.4104,279.05103,10.5064,312.407,-3.10655,12.2496,16.8849,17.0301
1980-03-10 00:44:06,1,-1.81667,1.65,2.1,0.283823,1,1,16490.6,14027.0,1692,0.9663341,-1.5967474,35.398193,279.05054,9.13155,314.446,-8.49942,12.7732,16.4997,15.2174
1980-03-10 00:45:27,1,-1.63333,1.76667,2.5,0.166667,1,1,16137.4,18590.3,1692,0.96633244,-1.5968094,35.38623,279.05029,8.97551,315.159,-3.16671,9.89346,16.3221,17.5187
1980-03-10 00:46:48,1,-1.66667,1.8,2.01667,0.277389,1,1,15291.6,13887.1,1692,0.96633077,-1.5968704,35.374512,279.05029,9.13195,313.946,-8.54966,14.0116,15.8885,15.1413
1980-03-10 00:48:09,1,-1.7,1.85,1.88333,0.327448,1,1,18032.3,18420.1,1692,0.96632737,-1.5969944,35.358398,279.0498,9.39424,313.631,-3.03046,12.4804,17.2538,17.4383
1980-03-10 00:49:30,1,-1.06667,1.7,1.6,0.268742,1,1,15378.6,15860.5,1692,0.9663257,-1.5970554,35.346436,279.04956,10.5486,317.806,-12.4599,11.3077,15.9337,16.1814
1980-03-10 00:50:51,1,-0.9,1.71667,1.66667,0.258736,1,1,15140.6,17381.3,1692,0.96632397,-1.5971174,35.334473,279.04932,11.243,320.468,-4.43498,11.8322,15.8099,16.9395
1980-03-10 00:52:12,1,-0.95,2.18333,1.6,0.332499,1,1,16621.3,14178.4,1692,0.96632057,-1.5972414,35.32251,279.04907,9.43934,316.901,-9.51493,14.0955,16.5649,15.2993
1980-03-10 00:53:33,1,-1.48333,2.15,1.26667,0.190029,1,1,17082.0,18004.0,1692,0.96631891,-1.5973024,35.310547,279.04883,9.89749,316.299,-2.27129,12.1787,16.7929,17.2402
1980-03-10 00:54:54,1,-1.13333,2.11667,1.2,0.252212,1,1,14196.6,14429.0,1692,0.96631724,-1.5973644,35.298584,279.04858,8.79316,315.409,-9.09252,10.6695,15.3091,15.4339
1980-03-10 00:56:15,1,-0.64,2.0,1.2,0.257682,1,1,15139.2,17168.7,1692,0.96631384,-1.5974884,35.282715,279.04834,11.0432,319.933,-2.91795,10.726,15.8092,16.8355
1980-03-10 00:57:36,1,-0.214286,1.57143,1.17143,0.23819,1,1,15933.1,15458.4,1692,0.96631217,-1.5975494,35.270752,279.0481,11.2197,318.353,-11.6177,12.6414,16.2184,15.975
1980-03-10 00:58:57,1,0.133333,1.5,1.1,0.149071,1,1,14452.5,15593.1,1692,0.96631044,-1.5976114,35.258789,279.04785,12.5951,320.288,-4.77264,12.025,15.4465,16.0444
1980-03-10 01:00:18,1,4.62593e-18,0.783333,1.25,0.322318,1,1,16980.8,16707.3,1692,0.9663071,-1.5977354,35.246826,279.04761,11.1948,318.519,-12.3895,12.7852,16.7431,16.6077
1980-03-10 01:01:39,1,0.05,1.2,1.15,0.187083,1,1,18509.3,20000.5,1692,0.96630538,-1.5977964,35.234863,279.04736,10.7703,319.339,-4.59447,11.8812,17.4804,18.171
1980-03-10 01:03:00,1,-0.55,0.75,1.48333,0.556527,1,1,22531.2,20548.4,1692,0.96630198,-1.5979204,35.222656,279.04688,10.733,317.95,-10.0125,12.7838,19.2864,18.4182
1980-03-10 01:04:21,1,0.0666667,0.7,1.46667,0.194365,1,1,23978.7,23742.8,1692,0.96630031,-1.5979815,35.210693,279.04663,10.0948,316.489,-4.86941,12.9262,19.8962,19.7981
1980-03-10 01:05:42,1,-0.216667,0.666667,0.866667,0.298608,1,1,21351.9,21506.2,1692,0.96629858,-1.5980434,35.195068,279.04663,9.86102,315.624,-8.69116,12.0416,18.7748,18.8426
1980-03-10 01:07:03,1,0.68,0.84,0.94,0.338231,1,1,22521.0,21303.1,1692,0.96629518,-1.5981674,35.182861,279.04614,10.9233,317.447,-3.81383,13.3443,19.282,18.7534
1980-03-10 01:08:24,1,0.683333,0.4,0.833333,0.387657,1,1,19446.7,20573.7,1692,0.96629351,-1.5982285,35.170898,279.0459,10.2952,316.707,-9.93073,14.4268,17.9176,18.4295
1980-03-10 01:09:45,1,1.26667,0.8,1.1,0.235702,1,1,23860.6,21457.0,1692,0.96629179,-1.5982904,35.15918,279.0459,10.7995,317.73,-5.64347,13.8079,19.8472,18.821
1980-03-10 01:11:06,1,0.98,0.36,1.1,0.236643,1,1,19345.6,22750.2,1692,0.96628845,-1.5984144,35.146973,279.04541,10.1875,317.177,-9.4695,12.837,17.871,19.3799
1980-03-10 01:12:27,1,0.483333,0.0666667,1.1,0.231541,1,1,22886.2,22955.0,1692,0.96628672,-1.5984755,35.13501,279.04517,10.2773,318.842,-5.79875,13.2577,19.4377,19.4669
1980-03-10 01:13:48,1,0.95,0.25,1.36667,0.24608,1,1,19928.6,20523.9,1692,0.96628505,-1.5985374,35.119141,279.04492,10.3684,317.546,-10.9095,12.4928,18.1383,18.4072
1980-03-10 01:15:09,1,0.933333,0.2,1.1,0.262467,1,1,25562.0,23594.3,1692,0.96628165,-1.5986614,35.107178,279.04468,10.0645,317.591,-5.41211,12.6583,20.5426,19.7361
1980-03-10 01:16:30,1,1.1,0.0333333,1.16667,0.301846,1,1,19328.8,20177.3,1692,0.96627992,-1.5987225,35.095215,279.04443,10.7747,317.001,-10.4823,13.2922,17.8633,18.2511
1980-03-10 01:17:51,1,1.31667,0.2,1.36667,0.321887,1,1,23692.5,23239.4,1692,0.96627825,-1.5987844,35.083252,279.04419,10.74,318.171,-4.72453,12.1848,19.7771,19.5871
1980-03-10 01:19:12,1,1.03333,0.283333,0.966667,0.243242,1,1,20236.6,21319.0,1692,0.96627486,-1.5989075,35.071289,279.04395,10.3565,317.491,-10.3188,14.0676,18.2779,18.7604
1980-03-10 01:20:33,1,1.11667,-0.25,0.833333,0.335824,1,1,23844.6,26858.7,1692,0.96627319,-1.5989695,35.059326,279.0437,10.8448,317.576,-5.44321,11.4407,19.8405,21.0572
1980-03-10 01:21:54,1,0.8,-0.05,0.7,0.180278,1,1,21730.6,26590.0,1692,0.96627146,-1.5990314,35.043457,279.04346,10.0269,317.076,-7.01054,12.055,18.9406,20.9516
1980-03-10 01:23:15,1,0.366667,0.516667,1.48333,0.308221,1,1,24699.2,24632.8,1692,0.96626806,-1.5991545,35.031494,279.04321,10.3844,318.194,-3.51265,12.2922,20.1929,20.1658
1980-03-10 01:24:36,1,0.666667,0.133333,0.933333,0.597216,1,1,24328.9,27008.3,1692,0.96626639,-1.5992165,35.019531,279.04297,10.1287,317.202,-4.91259,12.6332,20.041,21.1157
1980-03-10 01:25:57,1,-0.266667,0.8,1.6,0.280872,1,1,25350.9,27169.0,1692,0.96626467,-1.5992785,35.007568,279.04272,10.408,316.269,-0.864904,14.5079,20.4576,21.1785
1980-03-10 01:27:18,1,-0.233333,1.36667,1.46667,0.282843,1,1,31411.6,27103.5,1692,0.96626127,-1.5994015,34.995361,279.04224,9.31753,315.139,3.55857,12.8897,22.7721,21.1529
1980-03-10 01:28:39,1,0.34,1.22,1.98,0.24,1,1,29956.6,28704.3,1692,0.9662596,-1.5994635,34.983643,279.04224,9.82467,316.992,-1.6308,12.2281,22.2384,21.7686
1980-03-10 01:30:00,1,0.0333333,0.95,1.45,0.379327,1,1,34229.3,26295.6,1692,0.9662562,-1.5995865,34.967529,279.04175,8.84775,314.631,-2.55165,10.7247,23.7715,20.8353
1980-03-10 01:31:21,1,0.366667,1.11667,1.1,0.258736,1,1,26991.7,30818.7,1692,0.96625453,-1.5996485,34.955566,279.0415,10.0238,317.184,-0.371508,8.17285,21.1093,22.5561
1980-03-10 01:32:42,1,-0.766667,0.933333,1.53333,0.282843,1,1,34095.5,38278.3,1692,0.9662528,-1.5997105,34.943604,279.04126,9.47759,313.904,-3.33304,8.5909,23.725,25.1382
1980-03-10 01:34:03,1,-0.15,0.35,2.53333,0.952482,1,1,29125.5,26249.4,1692,0.96624941,-1.5998335,34.931641,279.04102,8.491,311.039,-0.525632,13.5136,21.9278,20.817
1980-03-10 01:35:24,1,0.583333,-0.633333,1.93333,0.32532,1,1,32117.5,33421.9,1692,0.96624774,-1.5998955,34.919678,279.04077,8.88911,316.727,-9.86762,12.4231,23.0265,23.4895
1980-03-10 01:36:45,1,-0.18,0.9,1.68,0.602661,1,1,29425.3,33857.0,1692,0.96624601,-1.5999575,34.907715,279.04053,9.81074,316.367,-3.40075,10.4479,22.0404,23.6419
1980-03-10 01:38:06,1,-1.11667,0.566667,1.35,0.257121,1,1,26625.4,34052.8,1692,0.96624261,-1.6000805,34.891846,279.04028,8.219,307.091,-2.362,8.6327,20.9655,23.7102
1980-03-10 01:39:27,1,-1.1,1.88,1.6,0.231517,1,1,22444.1,27918.4,1692,0.96624094,-1.6001425,34.879883,279.04004,8.33533,309.582,3.05998,9.75899,19.249,21.4686
1980-03-10 01:40:48,1,-0.383333,1.91667,1.83333,0.498331,1,1,30509.3,29158.7,1692,0.96623927,-1.6002045,34.86792,279.03979,7.68443,313.788,8.18565,8.46608,22.4427,21.9403
1980-03-10 01:42:09,1,-1.14,2.14,2.16,0.333467,1,1,23537.2,24344.5,1692,0.96623588,-1.6003275,34.855957,279.03955,7.20876,308.706,5.35847,12.3983,19.7122,20.0474
1980-03-10 01:43:30,1,-1.36,1.8,3.66,0.262298,1,1,28841.3,25715.0,1692,0.96623415,-1.6003895,34.843994,279.03931,7.78493,307.288,2.80344,20.254,21.8205,20.604
1980-03-10 01:44:51,1,-0.75,0.2,4.5,0.206155,1,1,24980.1,17296.4,1692,0.96623248,-1.6004515,34.832031,279.03906,8.1995,310.105,-3.63886,24.777,20.3074,16.898
1980-03-10 01:46:12,1,-1.21667,2.96667,2.73333,0.287228,1,1,22808.1,21659.5,1692,0.96622908,-1.6005745,34.816162,279.03882,7.54696,312.638,14.4592,9.71564,19.4045,18.9096
1980-03-10 01:47:33,1,-0.716667,1.88333,4.33333,0.410284,1,1,23233.1,17253.9,1692,0.96622735,-1.6006365,34.804199,279.03857,6.95689,314.521,2.80724,22.8369,19.5845,16.8772
1980-03-10 01:48:54,1,-1.16667,1.23333,4.76667,0.282843,1,1,24608.5,24004.0,1692,0.96622568,-1.6006985,34.792236,279.03833,6.33047,308.735,3.87513,23.683,20.1558,19.9067
1980-03-10 01:50:15,1,-0.05,1.51667,4.25,0.326173,1,1,32934.7,16951.6,1692,0.96622229,-1.6008215,34.780029,279.03784,7.90471,316.178,0.767346,22.3794,23.3177,16.7287
1980-03-10 01:51:36,1,-0.05,2.71667,3.9,0.252763,1,1,27604.4,20347.3,1692,0.96622062,-1.6008835,34.768311,279.03784,6.9624,316.271,10.5483,26.4098,21.3475,18.3278
1980-03-10 01:52:57,1,-0.0166667,2.93333,3.76667,0.269258,1,1,33393.5,22093.3,1692,0.96621889,-1.6009455,34.756348,279.0376,6.98116,317.835,10.4046,23.973,23.4795,19.098
1980-03-10 01:54:18,1,-0.816667,3.2,1.61667,0.330824,1,1,20986.0,20858.7,1692,0.96621549,-1.6010685,34.740234,279.03711,7.12829,319.527,13.1139,9.18121,18.6133,18.5567
1980-03-10 01:55:39,1,-0.466667,3.36667,2.36667,0.341565,1,1,34220.5,24219.5,1692,0.96621382,-1.6011305,34.728271,279.03687,7.78789,318.868,7.57412,14.3956,23.7685,19.9959
1980-03-10 01:57:00,1,-0.883333,3.18333,2.51667,0.301386,1,1,21955.2,19756.9,1692,0.96621042,-1.6012535,34.716309,279.03662,7.58044,316.754,13.1472,14.9715,19.0382,18.06
1980-03-10 01:58:21,1,-0.4,2.95,2.63333,0.328718,1,1,42277.7,24373.3,1692,0.9662087,-1.6013155,34.704346,279.03638,8.16846,316.5,7.78727,14.6618,26.4188,20.0593
1980-03-10 01:59:42,1,-0.733333,2.13333,3.6,0.2848,1,1,37280.7,21216.7,1692,0.96620703,-1.6013775,34.692383,279.03613,7.73629,314.582,6.65074,23.3761,24.8085,18.7153
1980-03-10 02:01:03,1,-0.58,2.84,3.0,0.32249,1,1,39611.6,26636.9,1692,0.96620363,-1.6015005,34.68042,279.03589,7.5527,315.755,5.49289,16.1148,25.5723,20.9701
1980-03-10 02:02:24,1,-0.583333,2.86667,2.75,0.275882,1,1,29635.3,22840.6,1692,0.96620196,-1.6015625,34.664551,279.03564,7.43499,317.865,10.476,16.4969,22.1188,19.4183
1980-03-10 02:03:45,1,-0.466667,2.15,2.46667,0.200693,1,1,37060.3,26962.9,1692,0.96620023,-1.6016245,34.652588,279.0354,9.11645,316.352,1.30828,15.3123,24.735,21.098
1980-03-10 02:05:06,1,0.0666667,1.21667,3.45,0.263523,1,1,38941.3,29882.6,1692,0.96619684,-1.6017475,34.640625,279.03516,9.69476,319.585,-2.5772,15.7438,25.355,22.211
1980-03-10 02:06:27,1,-0.2,2.91667,2.1,0.30777,1,1,24833.8,24564.0,1692,0.96619511,-1.6018095,34.628662,279.03491,8.63777,319.477,0.977677,11.5899,20.2479,20.1376
1980-03-10 02:07:48,1,-0.783333,2.56667,2.25,0.355121,1,1,30940.1,23710.5,1692,0.96620935,-1.4533527,34.53363,278.9516,7.78976,318.59,6.10111,11.2009,22.6005,19.7846
1980-03-10 02:08:16,-1,nan,nan,nan,nan,1,4,nan,nan,1692,0.96619171,-1.6019325,34.612549,279.03442,nan,nan,nan,nan,nan,nan
1980-03-10 02:09:09,1,-0.216667,2.83333,2.16667,0.25,1,1,25866.7,24263.2,1692,0.96619004,-1.6019945,34.604736,279.03442,8.28875,321.539,1.68023,11.1619,20.6647,20.0139
1980-03-10 02:10:30,1,-0.333333,2.81667,1.83333,0.214087,1,1,30987.7,24240.3,1692,0.96618831,-1.6020565,34.588867,279.03418,8.22681,317.097,7.0726,10.7081,22.6179,20.0045
1980-03-10 02:11:51,1,-0.16,3.22,1.82,0.24,1,1,26467.7,24455.3,1692,0.96618664,-1.6021185,34.576904,279.03394,8.52161,319.174,1.50913,10.1232,20.9034,20.093
1980-03-10 02:13:12,1,0.0166667,3.3,1.5,0.240947,1,1,34433.6,22264.4,1692,0.96618325,-1.6022415,34.564697,279.03345,7.66332,318.849,6.40359,8.63086,23.8424,19.1718
1980-03-10 02:14:33,1,-0.633333,2.63333,2.23333,0.351188,1,1,27850.3,26291.3,1692,0.96618152,-1.6023035,34.552979,279.03345,8.18993,317.278,1.56885,11.5874,21.4424,20.8336
1980-03-10 02:15:54,1,-0.8,2.4,1.5,0.481664,1,1,37437.2,22877.6,1692,0.96617985,-1.6023655,34.541016,279.0332,7.95041,315.135,3.92289,5.39837,24.8605,19.4341
1980-03-10 02:17:15,1,-0.166667,2.48333,1.76667,0.287228,1,1,26308.2,26575.4,1692,0.96617645,-1.6024885,34.528809,279.03271,8.75293,317.576,1.30357,9.8558,20.8403,20.9458
1980-03-10 02:18:36,1,-0.15,2.81667,1.96667,0.38658,1,1,39047.6,28270.6,1692,0.96617472,-1.6025505,34.512939,279.03247,8.54828,318.374,4.66174,11.9249,25.3896,21.6036
1980-03-10 02:19:57,1,-0.0833333,2.88333,2.16667,0.334166,1,1,27237.8,24656.6,1692,0.96617305,-1.6026115,34.501221,279.03247,8.49818,320.308,1.86561,12.2235,21.2053,20.1755
1980-03-10 02:21:18,1,-0.466667,2.63333,2.35,0.283333,1,1,37616.6,26195.3,1692,0.96616966,-1.6027355,34.489014,279.03198,8.63536,317.304,5.72316,13.6914,24.92,20.7955
1980-03-10 02:23:58,1,-0.683333,3.21667,2.46667,0.771362,1,1,27218.9,23535.7,1692,0.96618187,-1.4543424,34.382111,278.94852,7.7397,314.83,12.7575,14.7807,21.1979,19.7116
1980-03-10 02:25:19,1,1.15,3.28333,2.66667,0.492725,1,1,44215.9,17973.5,1692,0.96617967,-1.4544266,34.370148,278.94827,7.98163,321.32,6.34859,21.9007,27.0176,17.2256
1980-03-10 02:27:26,1,0.25,3.71667,3.15,0.373794,1,1,22158.3,21278.6,1692,0.96616113,-1.6030445,34.43335,279.03101,7.89459,322.05,14.2888,12.6596,19.1261,18.7426
1980-03-10 03:34:41,-1,nan,nan,nan,nan,1,3,nan,nan,1692,0.96604538,-1.6072426,33.803223,279.01807,nan,306.232,12.029,9.29985,nan,nan
1980-03-10 03:56:17,-1,nan,nan,nan,nan,1,3,nan,nan,1692,0.96600783,-1.6086016,33.60376,279.01392,nan,305.98,9.65678,12.2186,nan,nan
1980-03-10 04:17:53,-1,nan,nan,nan,nan,1,3,nan,nan,1692,0.96597195,-1.6098976,33.400635,279.01001,nan,291.201,27.6432,14.1864,nan,nan
1980-03-10 04:39:29,-1,nan,nan,nan,nan,1,3,nan,nan,1692,0.96593434,-1.6112566,33.197266,279.00586,nan,301.828,7.27812,15.6812,nan,nan
1980-03-10 05:01:05,-1,nan,nan,nan,nan,1,3,nan,nan,1692,0.96589673,-1.6126146,32.997803,279.00171,nan,305.794,16.9544,14.125,nan,nan
1980-03-10 05:22:41,-1,nan,nan,nan,nan,1,3,nan,nan,1692,0.96586072,-1.6139116,32.794434,278.99756,nan,306.726,20.9339,14.9925,nan,nan
1980-03-10 05:44:17,-1,nan,nan,nan,nan,1,3,nan,nan,1692,0.96582299,-1.6152706,32.591064,278.99341,nan,306.656,14.824,17.3542,nan,nan
1980-03-10 06:05:53,-1,nan,nan,nan,nan,1,3,nan,nan,1692,0.96578693,-1.6165667,32.391846,278.9895,nan,306.688,22.6925,17.05,nan,nan
1980-03-10 06:27:29,-1,nan,nan,nan,nan,1,3,nan,nan,1692,0.96574914,-1.6179256,32.188232,278.98511,nan,303.992,19.1871,22.4011,nan,nan
1980-03-10 06:49:05,-1,nan,nan,nan,nan,1,3,nan,nan,1692,0.96571136,-1.6192846,31.984863,278.98096,nan,300.973,7.81416,30.7273,nan,nan
1980-03-10 07:10:41,-1,nan,nan,nan,nan,1,3,nan,nan,1692,0.96567518,-1.6205816,31.785645,278.97705,nan,310.647,15.9858,28.2557,nan,nan
1980-03-10 07:32:17,-1,nan,nan,nan,nan,1,3,nan,nan,1692,0.96563727,-1.6219406,31.582275,278.9729,nan,297.541,10.6093,4.53865,nan,nan
1980-03-10 07:53:53,1,-1.6,4.4,2.0,0.0,1,1,20923.4,22740.8,1692,0.96560109,-1.6232376,31.383057,278.96899,7.02994,303.537,15.3799,14.9978,18.5855,19.3759
1980-03-10 08:15:29,1,-0.7,-0.5,-2.7,0.0,1,1,42807.5,24528.9,1692,0.96556312,-1.6245966,31.179688,278.96484,8.60704,312.114,-4.6646,-2.87173,26.5838,20.1232
1980-03-10 09:11:56,-1,nan,nan,nan,nan,1,3,nan,nan,1692,0.96546626,-1.6280565,30.65332,278.9541,nan,337.938,12.2566,16.4103,nan,nan
1980-03-10 09:13:17,1,-0.45,3.86667,-0.3,0.517741,1,1,36946.5,21762.3,1692,0.96546274,-1.6281805,30.637207,278.95361,7.64781,322.299,12.571,7.78998,24.697,18.9544
1980-03-10 09:14:38,1,-0.683333,3.41667,-1.16667,0.297209,1,1,56975.7,22315.6,1692,0.96546102,-1.6282425,30.625488,278.95361,7.60621,317.82,16.3537,3.68661,30.6692,19.1939
1980-03-10 09:14:48,1,-0.783333,3.45,-1.16667,0.269774,1,1,34601.7,26057.5,1692,0.96546102,-1.6282425,30.625488,278.95361,7.65326,315.864,10.1063,-2.64966,23.9005,20.7407
1980-03-10 09:16:09,1,2.18333,2.26667,-1.93333,0.631796,1,1,41614.3,21159.9,1692,0.96545756,-1.6283655,30.613281,278.95313,6.78491,334.258,2.0546,-12.7849,26.2107,18.6903
1980-03-10 09:17:30,1,3.5,-0.216667,-1.58333,0.464878,1,1,36233.3,28741.4,1692,0.96545583,-1.6284275,30.601318,278.95288,7.42347,343.64,-10.4493,-8.46506,24.4575,21.7827
1980-03-10 09:18:51,1,2.41429,0.857143,-1.7,0.425225,1,1,37246.9,29150.5,1692,0.9654541,-1.6284895,30.585449,278.95264,7.0909,335.915,-3.65867,-10.058,24.7972,21.9372
1980-03-10 10:34:35,-1,nan,nan,nan,nan,1,4,nan,nan,1692,0.9653222,-1.6331844,29.879639,278.93823,nan,nan,nan,nan,nan,nan
1980-03-10 10:35:56,1,1.76667,1.28333,-2.0,0.311359,1,1,28175.5,17745.3,1692,0.96532047,-1.6332464,29.86792,278.93823,7.69551,313.121,-11.2541,-12.7977,21.5672,17.1159
1980-03-10 10:37:00,1,1.61667,0.966667,-1.13333,0.269258,1,1,59841.4,34372.8,1692,0.96533459,-1.4845483,29.772797,278.85483,10.0584,320.819,-11.6156,-8.05302,31.431,23.8213
1980-03-10 10:37:17,1,1.63333,0.933333,-1.06667,0.541603,1,1,32484.8,20183.9,1692,0.96531695,-1.6333704,29.855713,278.93774,8.553,322.577,-4.2313,-9.81032,23.1578,18.2541
1980-03-10 10:38:21,1,1.48333,0.633333,-1.86667,0.377492,1,1,62018.8,29833.4,1692,0.96531522,-1.6334314,29.84375,278.9375,10.3393,321.563,-10.9251,-7.9475,31.9977,22.1926
1980-03-10 10:39:42,1,1.2,0.4,-1.9,0.2,1,1,60742.6,31032.7,1692,0.96531349,-1.6334934,29.832031,278.9375,10.5931,318.746,-14.4947,-7.78768,31.6668,22.6343
1980-03-10 10:42:23,1,1.41667,-2.31667,-0.466667,0.872735,1,1,66994.3,30296.9,1692,0.96532518,-1.48488,29.724915,278.85382,10.265,323.013,-24.146,3.49635,33.2565,22.3644
1980-03-10 10:43:44,1,1.55,-1.18333,-1.31667,0.851632,1,1,55441.3,36168.1,1692,0.96532285,-1.4849604,29.709015,278.85355,9.87861,320.481,-20.5099,-8.4513,30.2534,24.4355
1980-03-10 10:45:32,-1,nan,nan,nan,nan,1,4,nan,nan,1692,0.96530306,-1.6338644,29.776123,278.93628,nan,nan,nan,nan,nan,nan
1980-03-10 10:45:33,1,2.03333,1.1,-2.15,0.487909,1,1,51381.1,24423.2,1692,0.96530306,-1.6338644,29.776123,278.93628,9.95626,324.849,-14.7957,-11.59,29.1246,20.0798
1980-03-10 10:46:26,1,2.18333,2.25,-1.43333,0.190029,1,1,51990.4,25408.4,1692,0.96530133,-1.6339264,29.768066,278.93604,8.404,324.015,-7.46585,-12.3535,29.2968,20.4808
1980-03-10 10:47:48,1,1.68333,1.96667,-1.2,0.327024,1,1,67288.0,26596.0,1692,0.96529961,-1.6339874,29.756348,278.93604,8.70115,326.409,-6.73682,-15.3856,33.3293,20.9539
1980-03-10 10:49:09,1,1.93333,1.13333,-1.06667,0.208167,1,1,62191.5,32820.7,1692,0.96529609,-1.6341114,29.744141,278.93555,10.038,326.525,-9.28434,-13.6861,32.0423,23.2773
1980-03-10 10:50:30,1,1.4,1.95,-0.266667,0.569844,1,1,66978.1,26850.8,1692,0.96529436,-1.6341734,29.732178,278.9353,8.97287,326.537,-7.60753,-14.0603,33.2525,21.0541
1980-03-10 10:51:51,1,1.36667,3.23333,-0.666667,0.629815,1,1,55109.2,12623.6,1692,0.96529263,-1.6342354,29.716309,278.93506,8.33479,325.796,4.4964,-14.6488,30.1627,14.4361
1980-03-10 10:53:12,1,0.14,4.72,-0.04,0.293939,1,1,37911.8,18835.5,1692,0.96528918,-1.6343584,29.704346,278.93481,6.9777,311.464,18.3837,-7.26123,25.0176,17.6338